RH
87 91 83 91 97 98 100 92 61 39 18 13 11 13 17 22 25 25 23 21 20 19 19 19 19 19 22 27 28 27 25 24 24 26 29 30 30 28 27 28 27 26 24
80 87 90 81 96 97 98 100 94 48 22 15 13 14 17 23 26 26 25 23 22 21 21 20 21 21 24 28 30 28 25 25 26 28 32 31 30 27 28 29 27 26 24
84 85 99 78 99 96 99 99 99 60 28 17 15 17 21 26 27 27 26 26 25 24 23 23 23 24 26 30 30 28 25 24 26 30 32 31 29 27 30 29 27 25 24
86 79 91 86 92 99 100 98 100 80 42 20 17 18 18 21 25 27 28 28 28 27 26 26 26 26 28 31 32 30 27 25 26 33 34 33 30 30 29 27 26 25 23
84 85 78 97 91 75 97 97 100 92 55 27 18 18 22 27 30 30 30 30 30 30 29 29 29 29 31 33 34 32 29 26 31 35 35 33 32 33 30 26 24 24 22
72 86 88 86 99 78 54 54 65 74 54 37 22 19 24 26 29 30 31 32 32 32 33 33 33 33 34 36 37 34 30 29 37 38 37 35 35 33 30 26 24 21 19
58 81 96 92 96 95 56 52 56 68 71 52 30 20 26 31 30 32 33 33 33 34 36 37 37 37 38 39 40 36 31 36 41 41 39 38 37 34 31 27 24 21 18
47 57 85 99 90 100 87 44 48 47 63 54 38 22 27 34 33 34 38 37 37 40 40 41 41 41 42 43 42 38 34 43 45 44 42 41 38 34 31 26 23 20 17
39 45 58 75 93 94 82 54 54 50 54 54 45 24 28 35 35 36 38 44 42 42 42 42 44 45 46 46 45 38 40 48 48 46 44 43 39 34 30 26 22 17 13
42 47 45 72 84 79 94 87 77 71 57 54 48 31 27 39 43 43 40 42 41 40 43 45 46 47 50 50 46 39 48 51 50 47 46 44 39 33 29 24 17 10 5
44 41 44 54 78 82 84 88 90 95 67 77 64 42 32 36 56 45 44 43 43 44 45 46 50 50 53 51 45 45 54 54 52 48 47 43 36 30 25 18 9 4 3
40 38 35 42 65 98 98 89 90 87 52 71 83 47 39 41 55 44 50 47 44 47 50 50 52 52 53 51 46 55 57 56 52 50 46 39 32 25 16 8 4 3 2
41 39 40 48 55 79 98 99 98 77 66 67 75 56 43 50 52 51 49 49 47 47 49 54 56 56 54 50 55 62 61 57 53 50 42 33 26 15 7 3 3 3 4
39 40 43 48 53 80 98 96 99 80 67 57 56 55 42 41 46 50 50 52 54 52 52 58 58 56 54 54 64 66 63 57 53 45 35 26 15 6 3 3 4 5 7
49 45 45 51 62 98 100 100 100 82 68 59 59 53 44 46 52 55 58 59 57 52 59 61 59 58 56 64 69 68 61 55 46 35 25 13 5 3 3 4 6 10 12
66 54 52 55 73 96 100 100 99 81 80 87 69 65 49 56 64 61 60 61 57 60 64 62 62 60 65 72 71 64 57 48 35 23 11 4 3 3 5 8 13 15 16
68 79 90 70 74 83 98 100 89 91 98 97 96 78 66 77 75 66 65 62 63 64 64 66 63 67 75 73 67 58 48 34 21 10 4 3 4 6 9 13 17 20 26
70 84 85 75 80 88 88 96 99 99 99 99 98 97 88 74 75 72 66 64 66 68 72 68 69 77 76 68 59 47 32 18 7 3 3 5 7 11 15 15 18 25 27
73 88 98 93 82 86 96 98 99 99 99 98 98 97 88 80 88 72 67 68 69 73 71 73 79 78 69 58 45 30 15 6 4 4 6 8 13 17 19 22 25 27 32
71 74 92 99 94 96 95 98 99 99 98 98 98 94 95 91 75 73 73 73 76 75 77 81 79 69 56 39 22 11 4 4 5 8 10 15 18 22 28 29 28 31 36
70 67 99 100 93 99 94 97 98 98 99 98 100 100 93 82 77 78 80 82 79 83 86 79 66 53 34 20 8 4 4 6 8 11 14 19 25 31 33 35 37 41 46
83 75 98 100 98 100 92 98 99 99 98 99 99 97 88 85 86 87 87 88 95 93 78 63 47 29 15 6 4 6 8 10 12 15 22 29 32 33 35 39 43 42 39
74 79 88 100 99 98 99 98 98 98 98 98 98 97 96 97 97 95 96 96 95 76 57 40 25 12 4 5 7 10 12 14 17 27 32 32 31 32 33 34 34 32 32
81 90 99 99 98 99 98 99 98 98 98 97 97 98 99 97 96 96 96 95 76 49 33 17 6 5 6 8 12 15 17 24 30 32 29 24 23 24 27 30 32 33 34
89 97 100 99 100 99 98 98 98 98 98 97 97 98 97 96 96 96 95 84 49 24 10 5 7 9 11 14 16 17 24 30 28 21 20 24 26 29 33 35 36 36 36
100 95 98 99 99 97 97 97 97 97 97 97 97 96 96 96 96 95 89 49 12 6 6 9 11 14 16 17 19 28 29 22 20 22 25 29 31 32 33 38 47 50 48
Wind_Speed
41 50 55 44 45 41 39 34 32 31 31 31 32 32 30 28 26 25 23 22 20 18 16 14 12 10 8 7 6 7 9 10 11 12 13 16 17 19 21 22 24 24 24
42 50 56 60 50 46 40 37 33 32 30 29 30 30 30 30 28 27 25 24 22 20 18 16 14 12 10 9 8 9 10 10 11 12 14 16 18 19 22 23 23 23 24
49 50 54 67 43 43 44 39 36 33 32 30 32 34 34 34 32 29 26 25 23 21 19 17 15 14 11 10 11 12 12 12 12 14 16 18 19 21 22 22 22 22 23
53 54 53 61 48 38 40 40 35 35 33 31 33 34 32 30 27 27 27 25 24 22 20 18 17 15 13 12 13 14 14 14 15 16 17 19 22 25 24 22 22 22 24
47 54 57 54 62 50 42 43 37 37 33 32 32 33 32 29 28 29 28 26 24 23 21 20 18 16 15 14 15 15 15 15 17 18 20 23 26 28 29 26 21 20 22
50 53 61 52 61 44 35 35 36 37 34 34 34 34 32 31 32 30 28 27 25 24 22 21 19 18 17 16 17 17 16 16 18 20 22 25 28 31 33 34 33 28 21
46 48 48 52 54 62 41 39 40 41 37 35 34 34 33 32 30 28 27 26 25 24 23 22 21 19 18 18 18 18 18 19 20 22 24 28 31 33 34 37 39 40 36
43 43 52 55 60 64 60 39 38 37 37 34 34 34 34 33 31 29 27 25 25 25 24 23 22 20 19 19 19 19 19 20 22 24 27 31 33 35 36 38 40 43 44
37 38 43 48 63 60 60 45 39 37 37 35 35 36 37 35 32 30 29 28 28 28 26 25 23 21 21 20 20 20 20 22 23 26 29 32 34 36 37 39 41 45 50
28 31 36 44 62 65 59 55 45 35 39 37 35 37 38 34 34 32 31 30 30 28 27 25 24 23 21 21 21 21 22 23 25 28 32 34 35 37 38 40 43 45 49
30 27 32 39 49 62 58 65 54 42 42 41 37 37 38 38 34 33 32 31 30 28 26 25 24 23 22 22 22 22 23 25 27 30 34 36 37 38 40 42 44 45 48
27 35 33 38 49 58 64 59 56 47 43 41 37 37 38 38 36 37 34 31 29 27 26 25 24 23 23 22 22 23 24 27 30 33 36 37 39 40 42 44 44 46 47
22 30 34 35 39 51 59 63 61 48 38 39 35 37 39 41 39 36 34 32 29 27 26 25 24 23 23 23 23 24 26 29 32 35 37 38 40 41 43 45 46 46 46
22 23 32 33 33 43 55 56 59 52 38 35 33 37 39 42 40 37 34 30 27 26 26 25 24 23 23 23 24 26 28 31 35 37 38 40 42 43 45 46 45 44 43
10 21 28 31 30 37 54 57 53 49 44 41 36 33 36 41 40 36 32 28 27 26 26 24 23 23 23 24 25 28 31 34 36 38 39 41 43 45 45 45 43 42 43
6 8 17 26 28 30 42 53 48 45 52 45 40 38 40 40 39 35 31 28 27 26 24 23 22 22 23 25 28 30 33 36 37 38 40 42 44 45 43 41 41 42 43
7 3 5 12 25 30 32 45 54 56 54 47 45 40 39 40 37 33 30 28 26 24 24 22 21 22 24 27 30 32 35 37 38 40 41 42 43 42 40 40 40 40 40
7 10 10 16 23 27 32 34 46 53 49 50 47 37 40 38 35 32 29 27 24 23 22 21 21 23 26 29 32 34 36 37 39 41 42 42 39 38 40 41 41 39 39
5 14 11 18 20 27 31 33 35 43 48 46 40 39 39 35 34 30 27 24 23 22 21 20 22 25 28 31 34 35 36 37 39 40 39 39 39 40 41 41 40 39 38
7 11 11 13 17 27 25 27 37 48 44 39 40 36 36 34 30 27 25 23 22 21 20 21 23 26 30 32 33 35 36 38 37 36 36 37 39 39 39 40 40 40 39
6 10 22 18 19 28 34 33 40 40 40 36 36 37 33 30 28 26 23 22 20 20 20 22 25 28 30 31 33 35 36 36 34 35 35 36 37 37 37 38 38 38 38
12 11 24 26 25 29 36 38 37 35 36 37 35 33 30 27 25 23 22 21 20 19 21 23 26 28 30 31 33 33 33 34 34 35 35 35 35 36 35 35 35 35 35
13 18 27 31 33 36 35 38 37 35 34 35 32 30 28 27 24 24 22 18 18 20 21 24 26 28 30 30 30 30 31 32 34 33 34 35 35 35 34 34 35 36 37
17 20 28 34 37 38 42 32 28 28 30 29 28 29 28 26 22 19 17 16 18 20 22 25 25 26 27 28 28 29 31 31 32 30 31 33 34 35 36 36 35 35 36
27 24 28 33 36 43 42 33 31 32 31 29 29 27 24 21 19 16 13 15 18 22 23 23 23 23 24 25 27 29 31 30 30 31 32 33 33 34 34 34 33 33 33
26 29 31 35 40 36 31 30 32 31 29 29 26 23 21 17 13 11 13 17 20 20 20 20 20 21 22 25 27 27 27 29 31 32 33 34 35 35 36 35 34 31 31
Wind_Direction
231 220 214 218 210 212 214 221 215 213 210 209 208 205 204 203 206 205 203 203 206 207 210 215 219 225 233 242 257 273 286 297 306 314 322 328 333 337 335 334 331 329 326
231 223 211 215 215 211 214 216 221 214 213 212 211 209 208 206 206 208 207 206 208 213 216 219 224 230 238 249 262 272 280 290 297 303 311 320 328 330 334 333 329 326 323
227 226 213 214 219 212 214 216 217 215 213 213 209 207 205 206 207 208 210 211 212 215 220 226 230 237 244 256 269 276 281 287 291 298 310 318 324 328 330 329 325 322 318
223 227 224 220 221 219 216 218 219 218 213 214 213 212 213 212 211 213 214 214 216 220 224 230 235 243 251 263 273 280 286 292 296 303 313 319 323 326 327 327 322 322 317
224 225 226 213 211 213 221 219 221 220 214 215 214 215 210 208 213 215 214 216 221 225 229 233 239 246 254 264 273 280 288 294 300 308 316 321 324 325 324 323 318 317 313
231 228 232 225 218 205 223 219 220 222 217 215 214 214 211 211 213 215 218 220 223 228 233 238 244 250 258 267 275 283 289 295 301 310 317 321 324 325 324 322 321 320 318
233 228 227 227 222 219 212 224 215 218 219 219 216 214 210 212 215 218 223 225 228 233 236 241 246 253 261 270 278 286 293 300 307 314 319 322 323 324 323 322 321 320 319
236 231 229 223 222 212 215 222 221 217 218 221 220 214 213 213 214 216 221 223 227 232 238 242 247 254 263 272 280 288 295 301 309 315 320 321 323 323 322 320 319 318 318
228 230 230 228 217 221 201 209 214 215 217 218 220 216 214 213 215 217 220 219 224 230 236 242 249 255 263 272 281 289 295 302 310 315 318 320 320 320 320 318 319 319 318
229 236 227 224 217 221 206 206 215 223 220 215 216 218 217 213 215 218 222 224 228 233 237 243 250 256 264 274 282 289 296 303 309 314 316 317 318 318 317 317 317 317 315
236 238 234 227 219 218 223 218 219 225 224 215 215 214 217 213 214 219 222 226 230 235 240 245 250 257 266 275 282 288 296 303 309 312 314 315 317 315 315 315 315 314 313
236 234 234 226 219 216 218 210 219 224 224 212 211 212 215 214 214 219 221 226 231 234 239 245 250 258 266 275 282 289 297 304 307 310 313 314 314 314 314 313 312 312 311
218 213 218 218 218 213 213 219 219 217 226 219 210 210 214 212 214 219 223 226 230 236 242 245 250 259 268 276 284 292 298 303 306 309 311 311 312 312 312 311 311 311 310
214 220 213 220 225 209 212 215 208 210 219 211 210 211 214 215 216 220 223 225 230 236 240 244 251 261 269 277 285 293 300 303 306 309 310 310 311 312 310 310 309 309 311
217 214 208 212 218 213 216 211 204 203 210 212 211 208 213 215 215 218 221 224 231 236 238 244 254 263 271 280 289 295 300 303 306 307 309 311 311 310 310 310 311 312 313
359 209 216 217 218 221 204 195 192 206 210 207 211 210 213 214 214 217 219 225 230 234 239 246 255 266 275 284 291 296 300 303 305 307 310 310 309 309 309 310 311 314 314
344 225 204 217 216 213 216 199 205 206 212 198 208 206 213 211 213 213 218 223 228 233 240 249 260 270 279 287 293 298 300 303 306 309 309 309 308 308 311 312 313 313 311
323 240 233 188 187 192 204 211 212 208 207 197 202 206 206 211 211 212 217 222 227 234 243 253 264 274 283 289 294 298 301 305 308 309 309 307 309 312 313 312 312 311 308
239 223 189 177 182 194 195 199 199 201 199 197 194 204 206 204 209 211 216 223 229 237 247 258 269 278 285 290 295 300 304 307 308 307 307 311 314 314 313 311 311 310 309
219 223 180 183 173 184 194 186 187 188 193 184 195 198 200 202 205 211 216 223 230 240 251 264 274 281 286 292 298 303 305 304 305 309 311 313 312 312 313 312 312 312 310
236 223 181 175 164 173 175 175 178 177 181 188 191 195 195 199 204 213 217 224 234 245 257 268 275 283 290 297 301 302 302 305 309 311 313 312 313 315 315 313 312 311 312
200 195 175 163 164 168 161 168 177 181 187 190 192 191 193 200 207 213 220 227 239 252 263 272 282 290 296 298 299 303 306 309 312 314 315 317 317 316 314 313 312 313 313
184 181 171 164 160 163 170 180 183 186 190 191 190 191 195 199 203 212 223 233 245 258 271 281 287 291 295 299 303 306 309 313 314 318 317 318 316 315 315 315 317 317 317
171 182 169 164 160 167 174 185 181 184 190 187 184 187 194 202 209 215 225 241 258 271 278 284 289 293 296 302 307 313 314 313 313 315 313 313 315 318 319 318 318 317 316
175 168 166 166 172 177 178 177 185 184 184 186 189 192 197 200 207 218 236 257 270 276 281 286 290 297 303 309 311 311 310 311 313 314 315 317 319 319 318 316 315 314 313
162 162 166 175 176 169 173 177 175 174 180 185 188 188 192 201 213 231 254 265 273 279 285 291 299 304 307 307 307 308 311 314 315 318 320 321 321 321 319 316 313 315 314